[[{"header":{"parameterUnit":"m.s-1","parameterCategory":1,"la1":30.2991,"la2":30.254,"lo1":-89.0895,"lo2":-89.0444,"dy":0.0017,"dx":0.0017,"nx":28,"ny":28,"refTime":"2025-06-19T03:00:00:Z","depth":0,"parameterNumber":2,"parameterNumberName":"U-component_of_WINDS"},"data":[0,0,0,0,0,0,0,0,0,0,0,0,0,0,0,0,0,0,0,0,0,0,0,0,0,0,0,0,0,0,0,0,0,0,0,0,0,0,0,0,0,0,0,0,0,0,0,0,0,0,0,0,0,0,0,0,0,0,1.5765,1.5767,0,1.5875,1.5876,1.5877,1.589,1.5889,1.5887,1.5886,1.5998,1.6002,1.6006,0,0,0,0,0,0,0,0,0,0,0,0,0,1.5565,1.5569,1.5765,1.5767,1.5768,1.5874,1.5876,1.5877,1.589,1.5889,1.5887,1.5886,1.5997,1.6002,1.6007,0,0,0,0,0,0,0,0,0,0,0,0,0,1.5661,1.557,1.5765,1.5787,1.579,1.5874,1.5876,1.5878,1.589,1.5888,1.5887,1.5885,1.5996,1.6001,1.6007,1.6077,0,0,1.6026,1.6028,0,0,0,0,0,0,0,0,1.5656,1.5669,1.5782,1.5786,1.5789,1.5867,1.5847,1.5945,1.5891,1.5852,1.5886,1.5885,1.5956,1.5965,1.5989,1.6082,1.6087,1.6026,1.603,1.6032,1.6034,0,0,0,0,0,0,0,1.5649,1.5664,1.5809,1.5784,1.5788,1.5791,1.5803,1.5865,1.5912,1.5855,1.5857,1.5869,1.5957,1.5983,1.5992,1.6089,1.6026,1.6031,1.6035,1.6037,1.6242,1.6244,0,0,0,0,0,0,1.5639,1.5658,1.5805,1.5812,1.5717,1.5796,1.5809,1.5844,1.5911,1.592,1.5871,1.5869,1.5974,1.5985,1.5996,1.6081,1.6032,1.6038,1.6041,1.624,1.6243,1.6245,0,0,0,0,0,0,1.5634,1.5652,1.5801,1.5735,1.5755,1.5801,1.584,1.5847,1.5873,1.5923,1.5931,1.5889,1.5973,1.5987,1.6056,1.6085,1.6041,1.6046,1.6238,1.6241,1.6244,1.6251,0,0,0,0,0,0,1.5628,1.565,1.5677,1.5736,1.5758,1.586,1.5842,1.585,1.5883,1.5882,1.5942,1.595,1.5973,1.6047,1.6062,1.6092,1.6051,1.6236,1.624,1.6243,1.6249,1.6254,1.6259,0,0,0,0,0,1.5621,1.5676,1.5679,1.5696,1.5793,1.5861,1.5874,1.5899,1.5885,1.5913,1.5945,1.5948,1.6079,1.6054,1.6071,1.6103,1.6234,1.6239,1.6243,1.6247,1.6253,1.6259,0,0,0,0,0,0,1.562,1.5684,1.5688,1.5763,1.5806,1.5863,1.5899,1.5905,1.5954,1.5952,1.5981,1.5994,1.6061,1.6089,1.606,1.6173,1.6155,1.6163,1.6153,1.6159,1.6164,1.6156,1.6056,0,0,0,0,0,1.5628,1.5678,1.5731,1.5792,1.5814,1.5853,1.5883,1.5899,1.5945,1.5963,1.6001,1.6045,1.6096,1.6129,1.6179,1.6253,1.6265,1.6283,1.6288,1.6292,1.6298,1.6338,1.6346,1.6258,1.6258,1.6258,0,0,1.5646,1.5687,1.5717,1.5793,1.5829,1.5879,1.5868,1.5923,1.596,1.5972,1.6039,1.6067,1.6119,1.619,1.6223,1.6215,1.6325,1.6297,1.63,1.6304,1.6343,1.6351,1.6358,1.6261,1.6261,1.626,0,0,1.5704,1.5741,1.5795,1.583,1.5884,1.5909,1.5922,1.5977,1.5997,1.6064,1.6073,1.6118,1.6206,1.6242,1.6272,1.6341,1.6346,1.6357,1.6382,1.642,1.6427,1.6433,1.6457,1.6465,1.6363,1.6363,1.6363,0,1.5719,1.5796,1.5822,1.5875,1.5908,1.592,1.5974,1.6008,1.6075,1.6097,1.6087,1.6196,1.6232,1.6311,1.6327,1.6352,1.6366,1.635,1.6424,1.6431,1.6437,1.646,1.6469,1.6364,1.6364,1.6364,1.6363,0,1.5811,1.5864,1.5901,1.5965,1.6002,1.6056,1.6089,1.6123,1.6135,1.616,1.6228,1.6271,1.6329,1.6349,1.6362,1.6429,1.6423,1.6418,1.6401,1.6446,1.6467,1.6477,1.6365,1.6365,1.6364,1.6364,0,0,1.5872,1.5949,1.5962,1.599,1.6049,1.6091,1.6144,1.6201,1.6229,1.6274,1.6319,1.6392,1.6388,1.6422,1.6438,1.6472,1.6522,1.6463,1.6465,1.6472,1.6598,1.66,1.661,1.6526,1.6527,1.6529,1.6593,0,1.5936,1.6032,1.6056,1.6138,1.6186,1.6198,1.6244,1.6285,1.631,1.6354,1.6382,1.6433,1.6424,1.6444,1.6478,1.6509,1.6548,1.6505,1.6567,1.6569,1.6553,1.6621,1.6625,1.6683,1.6602,1.6603,1.6604,0,1.6024,1.6071,1.6157,1.6209,1.623,1.6271,1.6324,1.6366,1.6412,1.6428,1.6465,1.6478,1.6533,1.6512,1.6588,1.6558,1.6585,1.6604,1.6606,1.6613,1.6589,1.6629,1.6703,1.6711,1.6618,1.6617,1.6616,0,1.6059,1.6143,1.6205,1.6229,1.6291,1.632,1.6347,1.6391,1.6423,1.6469,1.6489,1.6541,1.657,1.6609,1.6635,1.6618,1.6708,1.669,1.6722,1.6721,1.6741,1.6739,1.6819,1.6759,1.6759,1.6759,1.6758,0,1.6127,1.6179,1.6221,1.6259,1.6317,1.6344,1.64,1.6427,1.6467,1.651,1.6523,1.6563,1.6595,1.6639,1.666,1.6719,1.6732,1.6745,1.675,1.6744,1.6742,1.6762,1.6758,1.6761,1.676,1.676,1.676,0,1.6176,1.6206,1.6274,1.6326,1.6341,1.6381,1.6426,1.6463,1.6487,1.6542,1.6556,1.6595,1.6647,1.6677,1.6743,1.6757,1.6822,1.6826,1.6807,1.6809,1.6838,1.6835,1.6933,1.6947,1.6878,1.6879,1.688,0,1.6217,1.6257,1.6314,1.6343,1.637,1.6418,1.645,1.6477,1.651,1.6564,1.6594,1.6648,1.6692,1.6775,1.6809,1.6859,1.6863,1.6894,1.6871,1.6862,1.6862,1.6859,1.6863,1.6898,1.6898,1.6899,1.6899,0,1.6287,1.63,1.6346,1.6396,1.6434,1.6476,1.6516,1.654,1.6573,1.6609,1.6663,1.6697,1.6763,1.6816,1.6868,1.6896,1.6903,1.6906,1.6916,1.691,1.6897,1.6903,1.6817,1.6904,1.6903,1.6903,1.6903,1.6903,1.6333,1.6368,1.6413,1.6463,1.6497,1.6534,1.6571,1.66,1.6645,1.6701,1.6714,1.677,1.6814,1.6885,1.6914,1.6957,1.6952,1.6966,1.697,1.6973,1.6973,1.689,1.6967,1.6967,1.6967,1.6967,1.6967,0,1.6403,1.6432,1.6478,1.6534,1.6573,1.6576,1.6621,1.6653,1.6702,1.6742,1.6785,1.6845,1.6895,1.6933,1.6984,1.7012,1.7016,1.7024,1.7022,1.7028,1.6976,1.6962,1.7019,1.7019,1.7019,1.7019,1.7019,1.7019,1.6444,1.6504,1.6521,1.6597,1.6626,1.668,1.6705,1.674,1.6771,1.6838,1.688,1.6904,1.6942,1.6996,1.7042,1.7051,1.7069,1.7077,1.7087,1.7037,1.7032,1.7026,1.7013,1.7081,1.7081,1.7135,1.7135,1.7136]},{"header":{"parameterUnit":"m.s-1","parameterCategory":1,"la1":30.2991,"la2":30.254,"lo1":-89.0895,"lo2":-89.0444,"dy":0.0017,"dx":0.0017,"nx":28,"ny":28,"refTime":"2025-06-19T03:00:00:Z","depth":0,"parameterNumber":3,"parameterNumberName":"V-component_of_WINDS"},"data":[0,0,0,0,0,0,0,0,0,0,0,0,0,0,0,0,0,0,0,0,0,0,0,0,0,0,0,0,0,0,0,0,0,0,0,0,0,0,0,0,0,0,0,0,0,0,0,0,0,0,0,0,0,0,0,0,0,0,5.2341,5.2342,0,5.246,5.2461,5.2462,5.2421,5.2419,5.2416,5.2414,5.2528,5.2533,5.2538,0,0,0,0,0,0,0,0,0,0,0,0,0,5.207,5.2075,5.2341,5.2342,5.2344,5.2459,5.2461,5.2463,5.2422,5.2419,5.2416,5.2413,5.2526,5.2532,5.2539,0,0,0,0,0,0,0,0,0,0,0,0,0,5.2188,5.2077,5.234,5.2338,5.2338,5.2459,5.2461,5.2463,5.2423,5.2419,5.2415,5.2411,5.2524,5.2532,5.254,5.2668,0,0,5.2564,5.2568,0,0,0,0,0,0,0,0,5.2181,5.2198,5.2336,5.2338,5.2339,5.2422,5.2407,5.2531,5.2424,5.239,5.2414,5.2409,5.2495,5.2505,5.2536,5.2673,5.2678,5.2565,5.257,5.2574,5.2576,0,0,0,0,0,0,0,5.2173,5.2193,5.2387,5.2338,5.234,5.2327,5.234,5.2431,5.2463,5.2393,5.239,5.2405,5.2495,5.2528,5.2538,5.2679,5.2565,5.2572,5.2577,5.258,5.2926,5.293,0,0,0,0,0,0,5.2165,5.2186,5.2384,5.2391,5.2249,5.2336,5.235,5.2399,5.2462,5.2468,5.2409,5.2403,5.2516,5.2529,5.2542,5.2695,5.2574,5.2581,5.2586,5.2922,5.2927,5.2932,0,0,0,0,0,0,5.216,5.2184,5.2379,5.2288,5.2312,5.2344,5.24,5.2404,5.2437,5.2474,5.2478,5.2437,5.2513,5.253,5.2637,5.2699,5.2585,5.2592,5.2917,5.2923,5.2929,5.3004,0,0,0,0,0,0,5.2152,5.2182,5.2233,5.229,5.2317,5.2475,5.2404,5.2409,5.2452,5.2446,5.2502,5.2507,5.2512,5.2625,5.2645,5.2708,5.2599,5.2911,5.292,5.2927,5.2996,5.3012,5.3026,0,0,0,0,0,5.2143,5.2247,5.2236,5.226,5.2382,5.2478,5.2494,5.2499,5.2457,5.2507,5.2531,5.2505,5.2689,5.2636,5.2658,5.2725,5.2907,5.2917,5.2927,5.2989,5.3009,5.3025,0,0,0,0,0,0,5.2194,5.2255,5.2242,5.2369,5.2419,5.2471,5.2535,5.252,5.2581,5.2572,5.2574,5.2587,5.2696,5.2721,5.2661,5.2851,5.2791,5.2806,5.2831,5.285,5.2865,5.2856,5.2605,0,0,0,0,0,5.2221,5.2297,5.2345,5.2451,5.2478,5.2502,5.2544,5.2545,5.2595,5.2615,5.2647,5.2695,5.2763,5.2808,5.2873,5.2999,5.301,5.3055,5.307,5.3082,5.3094,5.3162,5.3182,5.2963,5.2963,5.2963,0,0,5.2275,5.2318,5.2365,5.2463,5.2502,5.2578,5.252,5.2603,5.2659,5.2627,5.273,5.2755,5.2808,5.2925,5.2978,5.2949,5.3157,5.3095,5.3104,5.311,5.3174,5.3194,5.3213,5.297,5.2969,5.2968,0,0,5.2414,5.2455,5.2548,5.2589,5.265,5.2665,5.2688,5.2743,5.2758,5.2863,5.284,5.2905,5.3023,5.3062,5.3097,5.325,5.3229,5.3271,5.3348,5.3414,5.3431,5.3446,5.35,5.3519,5.3283,5.3284,5.3284,0,5.2474,5.2591,5.2597,5.2683,5.2726,5.2703,5.2796,5.2834,5.2912,5.2941,5.2908,5.3055,5.309,5.3215,5.3252,5.3282,5.3306,5.3265,5.3429,5.3444,5.3458,5.3509,5.353,5.3288,5.3288,5.3287,5.3287,0,5.266,5.2741,5.2809,5.2888,5.2938,5.3026,5.3044,5.3094,5.3089,5.3107,5.3212,5.3253,5.3326,5.3355,5.3351,5.348,5.346,5.3428,5.3368,5.3484,5.3532,5.3552,5.3295,5.3293,5.3292,5.3291,0,0,5.2834,5.2916,5.2941,5.2976,5.3041,5.3102,5.3189,5.3263,5.3304,5.3358,5.3429,5.353,5.3501,5.3541,5.3541,5.3598,5.3716,5.3559,5.356,5.3586,5.3859,5.3882,5.3904,5.3702,5.3706,5.3709,5.3854,0,5.2977,5.3133,5.3142,5.3282,5.3356,5.3335,5.341,5.3457,5.3476,5.3539,5.3559,5.363,5.3587,5.3611,5.3668,5.369,5.377,5.3679,5.3766,5.3769,5.3753,5.393,5.3954,5.4089,5.3873,5.3876,5.3878,0,5.3165,5.3228,5.3377,5.3431,5.3462,5.353,5.3598,5.366,5.3711,5.3721,5.3766,5.3757,5.3843,5.3781,5.3898,5.3836,5.3871,5.3887,5.3893,5.39,5.383,5.3941,5.4132,5.4152,5.3908,5.3905,5.3903,0,5.3276,5.3398,5.3502,5.3533,5.3599,5.3647,5.3676,5.3724,5.3768,5.3826,5.3854,5.392,5.3956,5.4007,5.4015,5.3969,5.4132,5.4071,5.414,5.414,5.4175,5.4172,5.4374,5.42,5.4199,5.4199,5.4198,0,5.3435,5.3526,5.3553,5.3617,5.3718,5.3726,5.3824,5.3849,5.3892,5.3959,5.3944,5.4006,5.4014,5.4077,5.4084,5.4179,5.4196,5.4204,5.4205,5.4205,5.4204,5.4228,5.4218,5.4204,5.4203,5.4202,5.4201,0,5.3576,5.3598,5.371,5.3764,5.378,5.3852,5.3897,5.3956,5.3974,5.4059,5.4079,5.4106,5.418,5.4193,5.428,5.4284,5.4397,5.4389,5.4381,5.438,5.4448,5.4441,5.4672,5.4701,5.4508,5.451,5.4512,0,5.3675,5.3745,5.3808,5.3853,5.3886,5.3958,5.4003,5.4013,5.406,5.4124,5.4175,5.4248,5.4307,5.4425,5.4451,5.4516,5.4509,5.4585,5.4518,5.4516,5.4508,5.4504,5.451,5.4597,5.4599,5.4601,5.4602,0,5.3849,5.3857,5.3924,5.3995,5.405,5.4106,5.4158,5.4195,5.4211,5.4264,5.4341,5.4387,5.4477,5.4548,5.4614,5.464,5.4624,5.4623,5.4643,5.4644,5.4636,5.464,5.4415,5.4618,5.4616,5.4615,5.4614,5.4614,5.3971,5.4033,5.4087,5.4162,5.4203,5.4253,5.4312,5.4338,5.4403,5.4479,5.448,5.4563,5.4611,5.4698,5.4729,5.4793,5.4768,5.4797,5.4804,5.481,5.4816,5.4627,5.4805,5.4804,5.4804,5.4804,5.4803,0,5.4144,5.4178,5.4247,5.4323,5.4381,5.4363,5.442,5.447,5.4545,5.4592,5.4651,5.4739,5.4808,5.484,5.4908,5.4952,5.4946,5.497,5.4966,5.4972,5.4835,5.4811,5.4974,5.4974,5.4974,5.4974,5.4974,5.4973,5.424,5.4343,5.4357,5.4478,5.4511,5.4595,5.4629,5.4674,5.4712,5.4812,5.4871,5.4892,5.4933,5.5003,5.5066,5.5073,5.5098,5.5125,5.5128,5.4999,5.4982,5.4965,5.4943,5.513,5.5131,5.526,5.5261,5.5262]}]]